Darstellungsparameter: Aktuell verwendete Einstellungen:
Skalierung der Graphiken ... ?
xyx+y,   Skalierungsfaktor:      Skalierung: Modus: x, Faktor: 1
Darstellungszeitraum ... ?
Vom - - bis: - -   Zeitraum: 03.03.2020 - 03.03.2020
Min/Max/Avg-Anzeige ... ?
Zeige MMA aktuell
Zeige MMA Monat
Zeige MMA alles
Zeige --A aktuell
Zeige --A Monat
Zeige --A alles
Keine MMA-Anzeige
MMA:
Minimum Maximum Average (ber die Originaldaten)
MMA-Basis: 03.03.2020 - 03.03.2020
Quicknavigation für Darstellung... ?
Tage:      1T, 2T, 3T, 5T -1T -2T -3T -5T +1T +2T +3T +5T
Wochen: 1W, 2W, 3W -1W -2W -3W +1W +2W +3W
Monate: 1M, 3M, 6M -1M -3M -6M +1M +3M +6M
Jahre:    1J, 3J, 5J, 10J -1J -3J -5J -10J +1J +3J +5J +10J
Nutze für die Darstellung ... ?
Originaldaten oder Mittelwerte auf ...
Stundenbasis Tagesbasis Wochenbasis
Monatsbasis Jahresbasis      Datenbasis: Original-Daten
Darstellen als:
Statistik (Auto) Statistik J:M      Darstellung:
Zur Graphik,    zurück zur Übersicht aller Sensoren.
 
Tabellarische Datenbersicht: ?
 
Sensor: Nr:Datum:Temp:Abs-Feuchte:Windchill:Wind:
Aussen-T/F 1 03-03-2020 00:00:00 5.9 C 6.92 g/m*3 5.9 C 0 km/h
2 03-03-2020 00:05:00 5.9 C 6.92 g/m*3 5.9 C 1.6 km/h
3 03-03-2020 00:10:00 5.9 C 6.92 g/m*3 3.8 C 9.7 km/h
4 03-03-2020 00:15:00 5.9 C 6.92 g/m*3 4.63 C 6.4 km/h
5 03-03-2020 00:20:00 5.8 C 6.88 g/m*3 4.52 C 6.4 km/h
6 03-03-2020 00:25:00 5.8 C 6.88 g/m*3 4.52 C 6.4 km/h
7 03-03-2020 00:30:00 5.8 C 6.88 g/m*3 5.8 C 4.8 km/h
8 03-03-2020 00:35:00 5.7 C 6.83 g/m*3 5.7 C 1.6 km/h
9 03-03-2020 00:40:00 5.7 C 6.83 g/m*3 5.7 C 1.6 km/h
10 03-03-2020 00:45:00 5.7 C 6.83 g/m*3 4.4 C 6.4 km/h
11 03-03-2020 00:50:00 5.7 C 6.83 g/m*3 5.7 C 1.6 km/h
12 03-03-2020 00:55:00 5.7 C 6.83 g/m*3 5.7 C 3.2 km/h
13 03-03-2020 01:00:00 5.7 C 6.83 g/m*3 5.7 C 3.2 km/h
14 03-03-2020 01:05:00 5.7 C 6.83 g/m*3 5.7 C 4.8 km/h
15 03-03-2020 01:10:00 5.7 C 6.83 g/m*3 3.93 C 8.1 km/h
16 03-03-2020 01:15:00 5.7 C 6.83 g/m*3 3.23 C 11.3 km/h
17 03-03-2020 01:20:00 5.7 C 6.83 g/m*3 3.23 C 11.3 km/h
18 03-03-2020 01:25:00 5.8 C 6.81 g/m*3 3.07 C 12.9 km/h
19 03-03-2020 01:30:00 5.8 C 6.81 g/m*3 3.36 C 11.3 km/h
20 03-03-2020 01:35:00 5.7 C 6.69 g/m*3 2.03 C 19.3 km/h
21 03-03-2020 01:40:00 5.5 C 6.53 g/m*3 1.99 C 17.7 km/h
22 03-03-2020 01:45:00 5.4 C 6.49 g/m*3 1.86 C 17.7 km/h
23 03-03-2020 01:50:00 5.3 C 6.45 g/m*3 2.75 C 11.3 km/h
24 03-03-2020 01:55:00 5.3 C 6.45 g/m*3 5.3 C 4.8 km/h
25 03-03-2020 02:00:00 5.3 C 6.45 g/m*3 3.08 C 9.7 km/h
Sensor: Nr:Datum:Temp:Abs-Feuchte:Windchill:Wind:
Aussen-T/F 26 03-03-2020 02:05:00 5.3 C 6.45 g/m*3 3.08 C 9.7 km/h
27 03-03-2020 02:10:00 5.3 C 6.45 g/m*3 3.46 C 8.1 km/h
28 03-03-2020 02:15:00 5.2 C 6.4 g/m*3 3.82 C 6.4 km/h
29 03-03-2020 02:20:00 5.2 C 6.4 g/m*3 5.2 C 3.2 km/h
30 03-03-2020 02:25:00 5.1 C 6.36 g/m*3 3.23 C 8.1 km/h
31 03-03-2020 02:30:00 5.1 C 6.22 g/m*3 2.84 C 9.7 km/h
32 03-03-2020 02:35:00 5.2 C 6.27 g/m*3 3.82 C 6.4 km/h
33 03-03-2020 02:40:00 5.2 C 6.2 g/m*3 3.34 C 8.1 km/h
34 03-03-2020 02:45:00 5.2 C 6.2 g/m*3 2.63 C 11.3 km/h
35 03-03-2020 02:50:00 5.2 C 6.2 g/m*3 5.2 C 3.2 km/h
36 03-03-2020 02:55:00 5.1 C 6.09 g/m*3 5.1 C 4.8 km/h
37 03-03-2020 03:00:00 5.1 C 6.16 g/m*3 5.1 C 4.8 km/h
38 03-03-2020 03:05:00 4.9 C 6.14 g/m*3 4.9 C 3.2 km/h
39 03-03-2020 03:10:00 4.8 C 6.04 g/m*3 4.8 C 4.8 km/h
40 03-03-2020 03:15:00 4.7 C 6.06 g/m*3 2.76 C 8.1 km/h
41 03-03-2020 03:20:00 4.5 C 5.85 g/m*3 1.79 C 11.3 km/h
42 03-03-2020 03:25:00 4.4 C 5.81 g/m*3 4.4 C 1.6 km/h
43 03-03-2020 03:30:00 4.4 C 5.88 g/m*3 2.9 C 6.4 km/h
44 03-03-2020 03:35:00 4.3 C 5.84 g/m*3 4.3 C 3.2 km/h
45 03-03-2020 03:40:00 4.2 C 5.8 g/m*3 4.2 C 4.8 km/h
46 03-03-2020 03:45:00 4.1 C 5.82 g/m*3 4.1 C 4.8 km/h
47 03-03-2020 03:50:00 3.9 C 5.75 g/m*3 3.9 C 4.8 km/h
48 03-03-2020 03:55:00 3.9 C 5.75 g/m*3 2.32 C 6.4 km/h
49 03-03-2020 04:00:00 3.8 C 5.71 g/m*3 2.21 C 6.4 km/h
50 03-03-2020 04:05:00 3.7 C 5.73 g/m*3 3.7 C 4.8 km/h
Sensor: Nr:Datum:Temp:Abs-Feuchte:Windchill:Wind:
Aussen-T/F 51 03-03-2020 04:10:00 3.7 C 5.73 g/m*3 3.7 C 4.8 km/h
52 03-03-2020 04:15:00 3.6 C 5.69 g/m*3 1.98 C 6.4 km/h
53 03-03-2020 04:20:00 3.6 C 5.69 g/m*3 1.98 C 6.4 km/h
54 03-03-2020 04:25:00 3.6 C 5.69 g/m*3 1.98 C 6.4 km/h
55 03-03-2020 04:30:00 3.6 C 5.69 g/m*3 1.98 C 6.4 km/h
56 03-03-2020 04:35:00 3.6 C 5.69 g/m*3 1.46 C 8.1 km/h
57 03-03-2020 04:40:00 3.7 C 5.73 g/m*3 2.09 C 6.4 km/h
58 03-03-2020 04:45:00 3.7 C 5.73 g/m*3 3.7 C 4.8 km/h
59 03-03-2020 04:50:00 3.6 C 5.69 g/m*3 1.98 C 6.4 km/h
60 03-03-2020 04:55:00 3.6 C 5.76 g/m*3 1.46 C 8.1 km/h
61 03-03-2020 05:00:00 3.6 C 5.69 g/m*3 1.06 C 9.7 km/h
62 03-03-2020 05:05:00 3.6 C 5.69 g/m*3 0.7 C 11.3 km/h
63 03-03-2020 05:10:00 3.6 C 5.69 g/m*3 3.6 C 4.8 km/h
64 03-03-2020 05:15:00 3.6 C 5.69 g/m*3 1.06 C 9.7 km/h
65 03-03-2020 05:20:00 3.5 C 5.66 g/m*3 1.34 C 8.1 km/h
66 03-03-2020 05:25:00 3.4 C 5.62 g/m*3 3.4 C 4.8 km/h
67 03-03-2020 05:30:00 3.3 C 5.64 g/m*3 1.11 C 8.1 km/h
68 03-03-2020 05:35:00 3.3 C 5.64 g/m*3 3.3 C 4.8 km/h
69 03-03-2020 05:40:00 3.3 C 5.64 g/m*3 1.11 C 8.1 km/h
70 03-03-2020 05:45:00 3.3 C 5.64 g/m*3 3.3 C 4.8 km/h
71 03-03-2020 05:50:00 3.3 C 5.64 g/m*3 1.63 C 6.4 km/h
72 03-03-2020 05:55:00 3.2 C 5.6 g/m*3 3.2 C 3.2 km/h
73 03-03-2020 06:00:00 3.2 C 5.6 g/m*3 3.2 C 4.8 km/h
74 03-03-2020 06:05:00 3.2 C 5.6 g/m*3 3.2 C 4.8 km/h
75 03-03-2020 06:10:00 3.3 C 5.7 g/m*3 1.63 C 6.4 km/h
Sensor: Nr:Datum:Temp:Abs-Feuchte:Windchill:Wind:
Aussen-T/F 76 03-03-2020 06:15:00 3.3 C 5.7 g/m*3 1.11 C 8.1 km/h
77 03-03-2020 06:20:00 3.4 C 5.68 g/m*3 1.23 C 8.1 km/h
78 03-03-2020 06:25:00 3.4 C 5.68 g/m*3 3.4 C 4.8 km/h
79 03-03-2020 06:30:00 3.4 C 5.68 g/m*3 3.4 C 4.8 km/h
80 03-03-2020 06:35:00 3.3 C 5.64 g/m*3 1.63 C 6.4 km/h
81 03-03-2020 06:40:00 3.3 C 5.64 g/m*3 3.3 C 4.8 km/h
82 03-03-2020 06:45:00 3.2 C 5.6 g/m*3 0.99 C 8.1 km/h
83 03-03-2020 06:50:00 3.2 C 5.6 g/m*3 3.2 C 4.8 km/h
84 03-03-2020 06:55:00 3.2 C 5.6 g/m*3 -0.1 C 12.9 km/h
85 03-03-2020 07:00:00 3.2 C 5.6 g/m*3 0.58 C 9.7 km/h
86 03-03-2020 07:05:00 3.3 C 5.64 g/m*3 3.3 C 4.8 km/h
87 03-03-2020 07:10:00 3.3 C 5.64 g/m*3 0.34 C 11.3 km/h
88 03-03-2020 07:15:00 3.3 C 5.64 g/m*3 1.11 C 8.1 km/h
89 03-03-2020 07:20:00 3.3 C 5.64 g/m*3 1.63 C 6.4 km/h
90 03-03-2020 07:25:00 3.3 C 5.64 g/m*3 1.11 C 8.1 km/h
91 03-03-2020 07:30:00 3.3 C 5.64 g/m*3 1.63 C 6.4 km/h
92 03-03-2020 07:35:00 3.3 C 5.64 g/m*3 1.63 C 6.4 km/h
93 03-03-2020 07:40:00 3.3 C 5.64 g/m*3 1.63 C 6.4 km/h
94 03-03-2020 07:45:00 3.3 C 5.64 g/m*3 3.3 C 4.8 km/h
95 03-03-2020 07:50:00 3.2 C 5.6 g/m*3 0.58 C 9.7 km/h
96 03-03-2020 07:55:00 3.2 C 5.6 g/m*3 0.99 C 8.1 km/h
97 03-03-2020 08:00:00 3.2 C 5.6 g/m*3 1.51 C 6.4 km/h
98 03-03-2020 08:05:00 3.2 C 5.6 g/m*3 1.51 C 6.4 km/h
99 03-03-2020 08:10:00 3.2 C 5.6 g/m*3 3.2 C 4.8 km/h
100 03-03-2020 08:15:00 3.2 C 5.6 g/m*3 0.58 C 9.7 km/h
Sensor: Nr:Datum:Temp:Abs-Feuchte:Windchill:Wind:
Aussen-T/F 101 03-03-2020 08:20:00 3.3 C 5.64 g/m*3 1.11 C 8.1 km/h
102 03-03-2020 08:25:00 3.4 C 5.68 g/m*3 1.75 C 6.4 km/h
103 03-03-2020 08:30:00 3.5 C 5.72 g/m*3 0.58 C 11.3 km/h
104 03-03-2020 08:35:00 3.7 C 5.8 g/m*3 0.82 C 11.3 km/h
105 03-03-2020 08:40:00 3.8 C 5.77 g/m*3 0.35 C 14.5 km/h
106 03-03-2020 08:45:00 3.8 C 5.77 g/m*3 -0.14 C 17.7 km/h
107 03-03-2020 08:50:00 3.9 C 5.75 g/m*3 0.22 C 16.1 km/h
108 03-03-2020 08:55:00 3.9 C 5.68 g/m*3 0.47 C 14.5 km/h
109 03-03-2020 09:00:00 3.9 C 5.68 g/m*3 1.06 C 11.3 km/h
110 03-03-2020 09:05:00 3.9 C 5.68 g/m*3 1.06 C 11.3 km/h
111 03-03-2020 09:10:00 3.9 C 5.68 g/m*3 0.47 C 14.5 km/h
112 03-03-2020 09:15:00 3.9 C 5.68 g/m*3 2.32 C 6.4 km/h
113 03-03-2020 09:20:00 3.8 C 5.65 g/m*3 0.94 C 11.3 km/h
114 03-03-2020 09:25:00 3.9 C 5.68 g/m*3 1.41 C 9.7 km/h
115 03-03-2020 09:30:00 3.9 C 5.68 g/m*3 0.75 C 12.9 km/h
116 03-03-2020 09:35:00 4.1 C 5.76 g/m*3 1.31 C 11.3 km/h
117 03-03-2020 09:40:00 4.1 C 5.76 g/m*3 2.55 C 6.4 km/h
118 03-03-2020 09:45:00 4.2 C 5.8 g/m*3 1.12 C 12.9 km/h
119 03-03-2020 09:50:00 4.3 C 5.84 g/m*3 0.97 C 14.5 km/h
120 03-03-2020 09:55:00 4.4 C 5.81 g/m*3 1.09 C 14.5 km/h
121 03-03-2020 10:00:00 4.7 C 5.86 g/m*3 1.46 C 14.5 km/h
122 03-03-2020 10:05:00 4.8 C 5.83 g/m*3 1.34 C 16.1 km/h
123 03-03-2020 10:10:00 5.1 C 5.95 g/m*3 2.22 C 12.9 km/h
124 03-03-2020 10:15:00 5.3 C 5.89 g/m*3 1.74 C 17.7 km/h
125 03-03-2020 10:20:00 5.3 C 5.82 g/m*3 2.2 C 14.5 km/h
Sensor: Nr:Datum:Temp:Abs-Feuchte:Windchill:Wind:
Aussen-T/F 126 03-03-2020 10:25:00 5.4 C 5.86 g/m*3 3.2 C 9.7 km/h
127 03-03-2020 10:30:00 5.4 C 5.86 g/m*3 2.32 C 14.5 km/h
128 03-03-2020 10:35:00 5.5 C 5.9 g/m*3 2.99 C 11.3 km/h
129 03-03-2020 10:40:00 5.5 C 5.76 g/m*3 2.2 C 16.1 km/h
130 03-03-2020 10:45:00 5.4 C 5.72 g/m*3 2.08 C 16.1 km/h
131 03-03-2020 10:50:00 5.3 C 5.61 g/m*3 0.99 C 24.1 km/h
132 03-03-2020 10:55:00 5.2 C 5.65 g/m*3 1.83 C 16.1 km/h
133 03-03-2020 11:00:00 5.2 C 5.65 g/m*3 2.63 C 11.3 km/h
134 03-03-2020 11:05:00 5.3 C 5.75 g/m*3 2.46 C 12.9 km/h
135 03-03-2020 11:10:00 5.3 C 5.75 g/m*3 2.75 C 11.3 km/h
136 03-03-2020 11:15:00 5.4 C 5.79 g/m*3 2.32 C 14.5 km/h
137 03-03-2020 11:20:00 5.4 C 5.86 g/m*3 3.58 C 8.1 km/h
138 03-03-2020 11:25:00 5.5 C 5.9 g/m*3 3.7 C 8.1 km/h
139 03-03-2020 11:30:00 5.4 C 5.79 g/m*3 4.06 C 6.4 km/h
140 03-03-2020 11:35:00 5.4 C 5.79 g/m*3 2.58 C 12.9 km/h
141 03-03-2020 11:40:00 5.5 C 5.9 g/m*3 3.7 C 8.1 km/h
142 03-03-2020 11:45:00 5.6 C 5.94 g/m*3 3.81 C 8.1 km/h
143 03-03-2020 11:50:00 5.7 C 5.91 g/m*3 3.23 C 11.3 km/h
144 03-03-2020 11:55:00 5.7 C 5.84 g/m*3 3.56 C 9.7 km/h
145 03-03-2020 12:00:00 5.8 C 5.95 g/m*3 4.05 C 8.1 km/h
146 03-03-2020 12:05:00 5.8 C 5.95 g/m*3 3.36 C 11.3 km/h
147 03-03-2020 12:10:00 5.9 C 5.91 g/m*3 3.48 C 11.3 km/h
148 03-03-2020 12:15:00 6 C 5.95 g/m*3 3.92 C 9.7 km/h
149 03-03-2020 12:20:00 6.1 C 5.99 g/m*3 4.86 C 6.4 km/h
150 03-03-2020 12:25:00 6.2 C 6.03 g/m*3 4.52 C 8.1 km/h
Sensor: Nr:Datum:Temp:Abs-Feuchte:Windchill:Wind:
Aussen-T/F 151 03-03-2020 12:30:00 6.3 C 6.07 g/m*3 4.64 C 8.1 km/h
152 03-03-2020 12:35:00 6.4 C 6.04 g/m*3 5.21 C 6.4 km/h
153 03-03-2020 12:40:00 6.5 C 6.07 g/m*3 3.92 C 12.9 km/h
154 03-03-2020 12:45:00 6.6 C 6.11 g/m*3 4.32 C 11.3 km/h
155 03-03-2020 12:50:00 6.6 C 6.04 g/m*3 4.99 C 8.1 km/h
156 03-03-2020 12:55:00 6.6 C 5.96 g/m*3 4.04 C 12.9 km/h
157 03-03-2020 13:00:00 6.5 C 5.92 g/m*3 4.2 C 11.3 km/h
158 03-03-2020 13:05:00 6.6 C 5.89 g/m*3 4.04 C 12.9 km/h
159 03-03-2020 13:10:00 6.7 C 5.93 g/m*3 4.75 C 9.7 km/h
160 03-03-2020 13:15:00 6.9 C 6 g/m*3 4.99 C 9.7 km/h
161 03-03-2020 13:20:00 7.2 C 5.97 g/m*3 4.77 C 12.9 km/h
162 03-03-2020 13:25:00 7.4 C 6.12 g/m*3 5.28 C 11.3 km/h
163 03-03-2020 13:30:00 7.6 C 6.12 g/m*3 5.26 C 12.9 km/h
164 03-03-2020 13:35:00 7.7 C 6.08 g/m*3 6.71 C 6.4 km/h
165 03-03-2020 13:40:00 7.7 C 6 g/m*3 5.65 C 11.3 km/h
166 03-03-2020 13:45:00 7.9 C 6 g/m*3 5.89 C 11.3 km/h
167 03-03-2020 13:50:00 8 C 6.12 g/m*3 5.3 C 16.1 km/h
168 03-03-2020 13:55:00 7.8 C 6.04 g/m*3 5.51 C 12.9 km/h
169 03-03-2020 14:00:00 7.4 C 6.04 g/m*3 5.93 C 8.1 km/h
170 03-03-2020 14:05:00 7.2 C 6.28 g/m*3 6.13 C 6.4 km/h
171 03-03-2020 14:10:00 7 C 6.35 g/m*3 5.46 C 8.1 km/h
172 03-03-2020 14:15:00 6.8 C 6.35 g/m*3 6.8 C 4.8 km/h
173 03-03-2020 14:20:00 6.7 C 6.38 g/m*3 6.7 C 1.6 km/h
174 03-03-2020 14:25:00 6.6 C 6.42 g/m*3 6.6 C 0 km/h
175 03-03-2020 14:30:00 6.5 C 6.37 g/m*3 4.51 C 9.7 km/h
Sensor: Nr:Datum:Temp:Abs-Feuchte:Windchill:Wind:
Aussen-T/F 176 03-03-2020 14:35:00 6.3 C 6.22 g/m*3 3.2 C 16.1 km/h
177 03-03-2020 14:40:00 6.1 C 6.21 g/m*3 3.18 C 14.5 km/h
178 03-03-2020 14:45:00 5.9 C 6.27 g/m*3 5.9 C 4.8 km/h
179 03-03-2020 14:50:00 5.8 C 6.23 g/m*3 4.05 C 8.1 km/h
180 03-03-2020 14:55:00 5.8 C 6.23 g/m*3 4.52 C 6.4 km/h
181 03-03-2020 15:00:00 5.7 C 6.26 g/m*3 3.93 C 8.1 km/h
182 03-03-2020 15:05:00 5.6 C 6.22 g/m*3 3.11 C 11.3 km/h
183 03-03-2020 15:10:00 5.4 C 6.07 g/m*3 2.87 C 11.3 km/h
184 03-03-2020 15:15:00 5.4 C 6.14 g/m*3 5.4 C 3.2 km/h
185 03-03-2020 15:20:00 5.6 C 6.22 g/m*3 4.29 C 6.4 km/h
186 03-03-2020 15:25:00 5.8 C 6.23 g/m*3 4.05 C 8.1 km/h
187 03-03-2020 15:30:00 6.1 C 6.36 g/m*3 4.4 C 8.1 km/h
188 03-03-2020 15:35:00 6.4 C 6.48 g/m*3 5.21 C 6.4 km/h
189 03-03-2020 15:40:00 6.6 C 6.42 g/m*3 4.63 C 9.7 km/h
190 03-03-2020 15:45:00 6.8 C 6.35 g/m*3 4.56 C 11.3 km/h
191 03-03-2020 15:50:00 7 C 6.35 g/m*3 7 C 4.8 km/h
192 03-03-2020 15:55:00 7 C 6.28 g/m*3 5.46 C 8.1 km/h
193 03-03-2020 16:00:00 6.9 C 6.31 g/m*3 6.9 C 4.8 km/h
194 03-03-2020 16:05:00 7.2 C 6.36 g/m*3 6.13 C 6.4 km/h
195 03-03-2020 16:10:00 7.4 C 6.36 g/m*3 5.93 C 8.1 km/h
196 03-03-2020 16:15:00 7.7 C 6.49 g/m*3 5.94 C 9.7 km/h
197 03-03-2020 16:20:00 7.7 C 6.32 g/m*3 5.38 C 12.9 km/h
198 03-03-2020 16:25:00 7.6 C 6.2 g/m*3 5.82 C 9.7 km/h
199 03-03-2020 16:30:00 7.5 C 6.24 g/m*3 6.05 C 8.1 km/h
200 03-03-2020 16:35:00 7.4 C 6.2 g/m*3 6.37 C 6.4 km/h
Sensor: Nr:Datum:Temp:Abs-Feuchte:Windchill:Wind:
Aussen-T/F 201 03-03-2020 16:40:00 7.4 C 6.2 g/m*3 7.4 C 4.8 km/h
202 03-03-2020 16:45:00 7.3 C 6.16 g/m*3 7.3 C 4.8 km/h
203 03-03-2020 16:50:00 7.3 C 6.24 g/m*3 6.25 C 6.4 km/h
204 03-03-2020 16:55:00 7.3 C 6.24 g/m*3 7.3 C 4.8 km/h
205 03-03-2020 17:00:00 7.3 C 6.16 g/m*3 5.81 C 8.1 km/h
206 03-03-2020 17:05:00 7.2 C 6.2 g/m*3 7.2 C 3.2 km/h
207 03-03-2020 17:10:00 7.1 C 6.24 g/m*3 5.58 C 8.1 km/h
208 03-03-2020 17:15:00 7.1 C 6.24 g/m*3 7.1 C 4.8 km/h
209 03-03-2020 17:20:00 7.1 C 6.4 g/m*3 7.1 C 4.8 km/h
210 03-03-2020 17:25:00 7 C 6.2 g/m*3 7 C 4.8 km/h
211 03-03-2020 17:30:00 6.9 C 6.16 g/m*3 5.79 C 6.4 km/h
212 03-03-2020 17:35:00 6.9 C 6.08 g/m*3 6.9 C 4.8 km/h
213 03-03-2020 17:40:00 6.9 C 6.24 g/m*3 6.9 C 1.6 km/h
214 03-03-2020 17:45:00 6.9 C 6.24 g/m*3 6.9 C 4.8 km/h
215 03-03-2020 17:50:00 6.9 C 6.24 g/m*3 6.9 C 0 km/h
216 03-03-2020 17:55:00 6.8 C 6.19 g/m*3 6.8 C 0 km/h
217 03-03-2020 18:00:00 6.6 C 6.11 g/m*3 6.6 C 4.8 km/h
218 03-03-2020 18:05:00 6.2 C 6.03 g/m*3 4.98 C 6.4 km/h
219 03-03-2020 18:10:00 5.9 C 5.98 g/m*3 4.63 C 6.4 km/h
220 03-03-2020 18:15:00 5.7 C 5.98 g/m*3 4.4 C 6.4 km/h
221 03-03-2020 18:20:00 5.3 C 5.89 g/m*3 3.94 C 6.4 km/h
222 03-03-2020 18:25:00 5.1 C 5.81 g/m*3 3.71 C 6.4 km/h
223 03-03-2020 18:30:00 4.9 C 5.81 g/m*3 3.48 C 6.4 km/h
224 03-03-2020 18:35:00 4.8 C 5.77 g/m*3 4.8 C 4.8 km/h
225 03-03-2020 18:40:00 4.6 C 5.76 g/m*3 4.6 C 4.8 km/h
Sensor: Nr:Datum:Temp:Abs-Feuchte:Windchill:Wind:
Aussen-T/F 226 03-03-2020 18:45:00 4.4 C 5.75 g/m*3 2.4 C 8.1 km/h
227 03-03-2020 18:50:00 4.3 C 5.71 g/m*3 2.29 C 8.1 km/h
228 03-03-2020 18:55:00 4.2 C 5.73 g/m*3 2.67 C 6.4 km/h
229 03-03-2020 19:00:00 4.1 C 5.7 g/m*3 2.05 C 8.1 km/h
230 03-03-2020 19:05:00 4 C 5.72 g/m*3 4 C 4.8 km/h
231 03-03-2020 19:10:00 3.9 C 5.68 g/m*3 3.9 C 4.8 km/h
232 03-03-2020 19:15:00 3.8 C 5.65 g/m*3 2.21 C 6.4 km/h
233 03-03-2020 19:20:00 3.8 C 5.65 g/m*3 1.7 C 8.1 km/h
234 03-03-2020 19:25:00 3.8 C 5.65 g/m*3 1.7 C 8.1 km/h
235 03-03-2020 19:30:00 3.8 C 5.65 g/m*3 3.8 C 4.8 km/h
236 03-03-2020 19:35:00 3.7 C 5.61 g/m*3 3.7 C 4.8 km/h
237 03-03-2020 19:40:00 3.6 C 5.57 g/m*3 3.6 C 3.2 km/h
238 03-03-2020 19:45:00 3.5 C 5.53 g/m*3 1.86 C 6.4 km/h
239 03-03-2020 19:50:00 3.4 C 5.56 g/m*3 3.4 C 4.8 km/h
240 03-03-2020 19:55:00 3.4 C 5.56 g/m*3 3.4 C 4.8 km/h
241 03-03-2020 20:00:00 3.4 C 5.56 g/m*3 3.4 C 3.2 km/h
242 03-03-2020 20:05:00 3.3 C 5.52 g/m*3 3.3 C 3.2 km/h
243 03-03-2020 20:10:00 3.2 C 5.48 g/m*3 3.2 C 1.6 km/h
244 03-03-2020 20:15:00 3 C 5.41 g/m*3 3 C 3.2 km/h
245 03-03-2020 20:20:00 2.9 C 5.37 g/m*3 2.9 C 1.6 km/h
246 03-03-2020 20:25:00 2.8 C 5.34 g/m*3 2.8 C 1.6 km/h
247 03-03-2020 20:30:00 2.8 C 5.4 g/m*3 2.8 C 4.8 km/h
248 03-03-2020 20:35:00 2.7 C 5.36 g/m*3 2.7 C 0 km/h
249 03-03-2020 20:40:00 2.7 C 5.36 g/m*3 2.7 C 0 km/h
250 03-03-2020 20:45:00 2.6 C 5.32 g/m*3 2.6 C 0 km/h
Sensor: Nr:Datum:Temp:Abs-Feuchte:Windchill:Wind:
Aussen-T/F 251 03-03-2020 20:50:00 2.6 C 5.38 g/m*3 2.6 C 0 km/h
252 03-03-2020 20:55:00 2.6 C 5.38 g/m*3 2.6 C 0 km/h
253 03-03-2020 21:00:00 2.5 C 5.35 g/m*3 2.5 C 0 km/h
254 03-03-2020 21:05:00 2.4 C 5.31 g/m*3 2.4 C 0 km/h
255 03-03-2020 21:10:00 2.3 C 5.27 g/m*3 2.3 C 0 km/h
256 03-03-2020 21:15:00 2.3 C 5.27 g/m*3 2.3 C 0 km/h
257 03-03-2020 21:20:00 2.3 C 5.27 g/m*3 2.3 C 0 km/h
258 03-03-2020 21:25:00 2.3 C 5.27 g/m*3 2.3 C 0 km/h
259 03-03-2020 21:30:00 2.3 C 5.33 g/m*3 2.3 C 0 km/h
260 03-03-2020 21:35:00 2.3 C 5.33 g/m*3 2.3 C 0 km/h
261 03-03-2020 21:40:00 2.3 C 5.33 g/m*3 2.3 C 0 km/h
262 03-03-2020 21:45:00 2.3 C 5.33 g/m*3 2.3 C 0 km/h
263 03-03-2020 21:50:00 2.4 C 5.37 g/m*3 2.4 C 0 km/h
264 03-03-2020 21:55:00 2.4 C 5.37 g/m*3 2.4 C 0 km/h
265 03-03-2020 22:00:00 2.4 C 5.37 g/m*3 2.4 C 0 km/h
266 03-03-2020 22:05:00 2.4 C 5.37 g/m*3 2.4 C 0 km/h
267 03-03-2020 22:10:00 2.4 C 5.37 g/m*3 2.4 C 0 km/h
268 03-03-2020 22:15:00 2.4 C 5.37 g/m*3 2.4 C 0 km/h
269 03-03-2020 22:20:00 2.4 C 5.37 g/m*3 2.4 C 0 km/h
270 03-03-2020 22:25:00 2.4 C 5.37 g/m*3 2.4 C 0 km/h
271 03-03-2020 22:30:00 2.4 C 5.37 g/m*3 2.4 C 0 km/h
272 03-03-2020 22:35:00 2.3 C 5.33 g/m*3 2.3 C 0 km/h
273 03-03-2020 22:40:00 2.3 C 5.33 g/m*3 2.3 C 0 km/h
274 03-03-2020 22:45:00 2.3 C 5.33 g/m*3 2.3 C 0 km/h
275 03-03-2020 22:50:00 2.2 C 5.29 g/m*3 2.2 C 0 km/h
Sensor: Nr:Datum:Temp:Abs-Feuchte:Windchill:Wind:
Aussen-T/F 276 03-03-2020 22:55:00 2.2 C 5.29 g/m*3 2.2 C 0 km/h
277 03-03-2020 23:00:00 2.2 C 5.29 g/m*3 2.2 C 0 km/h
278 03-03-2020 23:05:00 2.2 C 5.35 g/m*3 2.2 C 4.8 km/h
279 03-03-2020 23:10:00 2.3 C 5.39 g/m*3 2.3 C 3.2 km/h
280 03-03-2020 23:15:00 2.4 C 5.42 g/m*3 0.59 C 6.4 km/h
281 03-03-2020 23:20:00 2.6 C 5.5 g/m*3 0.82 C 6.4 km/h
282 03-03-2020 23:25:00 2.8 C 5.57 g/m*3 2.8 C 3.2 km/h
283 03-03-2020 23:30:00 2.8 C 5.57 g/m*3 2.8 C 3.2 km/h
284 03-03-2020 23:35:00 2.9 C 5.61 g/m*3 2.9 C 4.8 km/h
285 03-03-2020 23:40:00 2.9 C 5.61 g/m*3 2.9 C 3.2 km/h
286 03-03-2020 23:45:00 3 C 5.65 g/m*3 3 C 3.2 km/h
287 03-03-2020 23:50:00 3 C 5.65 g/m*3 3 C 3.2 km/h
288 03-03-2020 23:55:00 3 C 5.59 g/m*3 3 C 4.8 km/h

Legende:
   Min
   Max


Maximal/Minimal-Werte vom 03.03.2020 - 03.03.2020

Sensor Min Max Avg
Temp
(Aussen-T/F)
2.2 °C
03-03-2020  22:50:00
8 °C
03-03-2020  13:50:00
4.69 °C
Abs-Feuchte
(Aussen-T/F)
5.27 g/m*3
03-03-2020  21:10:00
6.92 g/m*3
03-03-2020  00:00:00
5.88 g/m*3
Windchill
(Aussen-T/F)
-0.14 C
03-03-2020  08:45:00
7.4 C
03-03-2020  16:40:00
3.37 C

Die Daten stammen von einer Davis Vantage Pro 2 Wetter-Station und werden unter Linux mit der Software wview2wettercgi und aufbereitet. Alle Angaben erfolgen ohne Gewähr für ihre Vollständigkeit oder Richtigkeit.
Kontakt: Rainer Krienke krienke@uni-koblenz.de . Meine Webseiten an der Uni Koblenz oder privat.
Version: $Revision: 0.78 $